{"data":{"norad_id":65978,"epoch":"2026-05-25T04:54:30.063168Z","epoch_age_seconds":53301,"freshness":"FRESH","line1":"1 65978U 25230E   26145.20451462  .00012558  00000+0  11027-1 0  9991","line2":"2 65978  81.3006 232.7935 0003031 259.1611 100.9206 13.85316788 30649","mean_motion":13.85316788,"eccentricity":0.0003031,"inclination_deg":81.3006,"raan_deg":232.7935,"arg_perigee_deg":259.1611,"mean_anomaly_deg":100.9206,"bstar":0.011027,"rev_number":3064,"period_min":103.94734348661,"perigee_km":942.86943413449,"apogee_km":947.30877379871,"semimajor_km":7323.2261039666,"source":"CELESTRAK","updated_at":"2026-05-25T13:38:05.877263Z"}}